| time (UTC) | temp F | wind direction | speed MPH | gust MPH | rain 1hr in | rain 24hr in | rain mn in | humidity % | barometer mb |
| 20260831174220 | 73 | 160 | 1.0 | 3.0 | 0.00 | 0.00 | 0.00 | 81 | 1020.7 |
| 20260831173220 | 73 | 95 | 3.0 | 6.0 | 0.00 | 0.00 | 0.00 | 80 | 1020.7 |
| 20260831172219 | 73 | 135 | 3.0 | 6.0 | 0.00 | 0.00 | 0.00 | 79 | 1020.9 |
| 20260831171221 | 73 | 131 | 4.0 | 6.0 | 0.00 | 0.00 | 0.00 | 79 | 1020.8 |
| 20260831170221 | 74 | 136 | 4.0 | 6.0 | 0.00 | 0.00 | 0.00 | 78 | 1021.0 |
| 20260831165655 | 76 | 118 | 3.0 | 7.0 | 0.00 | 0.00 | 0.00 | 74 | 1020.9 |
| 20260831164221 | 75 | 209 | 0.0 | 7.0 | 0.00 | 0.00 | 0.00 | 74 | 1020.7 |
| 20260831163657 | 76 | 113 | 5.0 | 7.0 | 0.00 | 0.00 | 0.00 | 72 | 1020.8 |
| 20260831162222 | 76 | 131 | 4.0 | 9.0 | 0.00 | 0.00 | 0.00 | 73 | 1020.7 |
| 20260831161220 | 76 | 105 | 2.0 | 8.0 | 0.00 | 0.00 | 0.00 | 71 | 1020.9 |
| 20260831160221 | 76 | 145 | 6.0 | 10.0 | 0.00 | 0.00 | 0.00 | 73 | 1021.0 |
| 20260831155211 | 76 | 190 | 5.0 | 10.0 | 0.00 | 0.00 | 0.00 | 72 | 1020.8 |
| 20260831154211 | 76 | 146 | 3.0 | 9.0 | 0.00 | 0.00 | 0.00 | 72 | 1020.9 |
| 20260831153659 | 77 | 148 | 4.0 | 9.0 | 0.00 | 0.00 | 0.00 | 70 | 1021.0 |
| 20260831152211 | 77 | 131 | 4.0 | 10.0 | 0.00 | 0.00 | 0.00 | 69 | 1020.9 |
| 20260831151211 | 77 | 162 | 3.0 | 10.0 | 0.00 | 0.00 | 0.00 | 68 | 1021.2 |
| 20260831150211 | 78 | 81 | 4.0 | 9.0 | 0.00 | 0.00 | 0.00 | 68 | 1021.3 |
| 20260831145211 | 76 | 170 | 5.0 | 10.0 | 0.00 | 0.00 | 0.00 | 69 | 1021.2 |
| 20260831144645 | 77 | 160 | 3.0 | 9.0 | 0.00 | 0.00 | 0.00 | 70 | 1021.2 |
| 20260831143152 | 76 | 144 | 5.0 | 9.0 | 0.00 | 0.00 | 0.00 | 71 | 1021.5 |
| 20260831142157 | 77 | 71 | 3.0 | 8.0 | 0.00 | 0.00 | 0.00 | 70 | 1021.2 |
| 20260831141152 | 76 | 164 | 3.0 | 11.0 | 0.00 | 0.00 | 0.00 | 72 | 1021.5 |
| 20260831140152 | 76 | 129 | 4.0 | 10.0 | 0.00 | 0.00 | 0.00 | 73 | 1021.5 |
| 20260831135152 | 76 | 128 | 6.0 | 10.0 | 0.00 | 0.00 | 0.00 | 71 | 1021.7 |
| 20260831134152 | 76 | 136 | 3.0 | 7.0 | 0.00 | 0.00 | 0.00 | 71 | 1021.6 |
| 20260831134117 | 76 | 196 | 7.0 | 11.0 | 0.00 | 0.00 | 0.00 | 70 | 1021.7 |
| 20260831132152 | 77 | 139 | 6.0 | 8.0 | 0.00 | 0.00 | 0.00 | 70 | 1021.6 |
| 20260831131152 | 75 | 185 | 2.0 | 9.0 | 0.00 | 0.00 | 0.00 | 72 | 1021.6 |
| 20260831130153 | 76 | 150 | 2.0 | 10.0 | 0.00 | 0.00 | 0.00 | 70 | 1021.8 |
| 20260831125628 | 77 | 139 | 8.0 | 9.0 | 0.00 | 0.00 | 0.00 | 68 | 1022.0 |
| 20260831124153 | 76 | 108 | 5.0 | 9.0 | 0.00 | 0.00 | 0.00 | 70 | 1022.0 |
| 20260831123152 | 76 | 201 | 5.0 | 8.0 | 0.00 | 0.00 | 0.00 | 70 | 1022.1 |
| 20260831123114 | 76 | 112 | 4.0 | 9.0 | 0.00 | 0.00 | 0.00 | 70 | 1022.1 |
| 20260831121152 | 75 | 124 | 3.0 | 8.0 | 0.00 | 0.00 | 0.00 | 71 | 1022.0 |
| 20260831120153 | 75 | 119 | 3.0 | 9.0 | 0.00 | 0.00 | 0.00 | 71 | 1022.1 |
| 20260831115632 | 75 | 139 | 2.0 | 9.0 | 0.00 | 0.00 | 0.00 | 71 | 1022.2 |
| 20260831114151 | 75 | 68 | 3.0 | 8.0 | 0.00 | 0.00 | 0.00 | 73 | 1022.4 |
| 20260831113151 | 75 | 112 | 4.0 | 7.0 | 0.00 | 0.00 | 0.00 | 73 | 1022.5 |
| 20260831112151 | 73 | 164 | 5.0 | 8.0 | 0.00 | 0.00 | 0.00 | 76 | 1022.4 |
| 20260831111151 | 74 | 168 | 2.0 | 7.0 | 0.00 | 0.00 | 0.00 | 77 | 1022.3 |
| 20260831110151 | 72 | 143 | 4.0 | 7.0 | 0.00 | 0.00 | 0.00 | 81 | 1022.4 |
| 20260831105624 | 71 | 154 | 3.0 | 7.0 | 0.00 | 0.00 | 0.00 | 81 | 1022.4 |
| 20260831104151 | 72 | 90 | 3.0 | 7.0 | 0.00 | 0.00 | 0.00 | 81 | 1022.2 |
| 20260831103152 | 72 | 143 | 4.0 | 7.0 | 0.00 | 0.00 | 0.00 | 80 | 1022.1 |
| 20260831102154 | 71 | 146 | 2.0 | 4.0 | 0.00 | 0.00 | 0.00 | 82 | 1022.1 |
| 20260831101151 | 71 | 155 | 2.0 | 6.0 | 0.00 | 0.00 | 0.00 | 81 | 1022.3 |
| 20260831100151 | 71 | 164 | 2.0 | 6.0 | 0.00 | 0.00 | 0.00 | 81 | 1022.4 |
| 20260831095151 | 71 | 143 | 4.0 | 8.0 | 0.00 | 0.00 | 0.00 | 81 | 1022.3 |
| 20260831094152 | 71 | 132 | 6.0 | 8.0 | 0.00 | 0.00 | 0.00 | 80 | 1022.3 |
| 20260831093152 | 71 | 83 | 4.0 | 4.0 | 0.00 | 0.00 | 0.00 | 79 | 1022.2 |
| 20260831092152 | 73 | 150 | 4.0 | 4.0 | 0.00 | 0.00 | 0.00 | 76 | 1022.1 |
| 20260831091151 | 72 | 128 | 0.0 | 3.0 | 0.00 | 0.00 | 0.00 | 77 | 1022.2 |
| 20260831090152 | 71 | 134 | 1.0 | 2.0 | 0.00 | 0.00 | 0.00 | 77 | 1022.1 |
| 20260831085151 | 72 | 14 | 1.0 | 2.0 | 0.00 | 0.00 | 0.00 | 76 | 1022.0 |
| 20260831084151 | 72 | 32 | 0.0 | 2.0 | 0.00 | 0.00 | 0.00 | 76 | 1021.8 |
| 20260831083625 | 70 | 335 | 0.0 | 2.0 | 0.00 | 0.00 | 0.00 | 79 | 1021.9 |
| 20260831082627 | 69 | 28 | 1.0 | 2.0 | 0.00 | 0.00 | 0.00 | 80 | 1021.9 |
| 20260831081150 | 68 | 134 | 2.0 | 4.0 | 0.00 | 0.00 | 0.00 | 83 | 1021.8 |
| 20260831080150 | 66 | 4 | 2.0 | 4.0 | 0.00 | 0.00 | 0.00 | 84 | 1021.6 |
| 20260831075137 | 67 | 347 | 4.0 | 7.0 | 0.00 | 0.00 | 0.00 | 83 | 1021.3 |
| 20260831074138 | 66 | 345 | 4.0 | 8.0 | 0.00 | 0.00 | 0.00 | 85 | 1021.1 |
| 20260831073138 | 65 | 14 | 2.0 | 8.0 | 0.00 | 0.00 | 0.00 | 85 | 1020.9 |
| 20260831072138 | 65 | 332 | 5.0 | 8.0 | 0.00 | 0.00 | 0.00 | 86 | 1021.1 |
| 20260831071137 | 65 | 349 | 4.0 | 7.0 | 0.00 | 0.00 | 0.00 | 85 | 1021.0 |
| 20260831070138 | 65 | 348 | 3.0 | 6.0 | 0.00 | 0.00 | 0.00 | 86 | 1021.0 |
| 20260831065138 | 65 | 326 | 3.0 | 4.0 | 0.00 | 0.00 | 0.00 | 86 | 1021.0 |
| 20260831064138 | 65 | 342 | 3.0 | 4.0 | 0.00 | 0.00 | 0.00 | 86 | 1020.6 |
| 20260831063138 | 64 | 330 | 3.0 | 4.0 | 0.00 | 0.00 | 0.00 | 87 | 1020.5 |
| 20260831062138 | 65 | 339 | 2.0 | 3.0 | 0.00 | 0.00 | 0.00 | 86 | 1020.5 |
| 20260831061139 | 65 | 346 | 1.0 | 4.0 | 0.00 | 0.00 | 0.00 | 86 | 1020.1 |
| 20260831060138 | 65 | 330 | 3.0 | 6.0 | 0.00 | 0.00 | 0.00 | 86 | 1020.4 |
| 20260831055615 | 64 | 347 | 3.0 | 6.0 | 0.00 | 0.00 | 0.00 | 87 | 1020.2 |
| 20260831054137 | 64 | 341 | 2.0 | 6.0 | 0.00 | 0.00 | 0.00 | 87 | 1020.2 |
| 20260831053138 | 64 | 344 | 4.0 | 6.0 | 0.00 | 0.00 | 0.00 | 88 | 1020.5 |
| 20260831052137 | 64 | 359 | 2.0 | 4.0 | 0.00 | 0.00 | 0.00 | 89 | 1020.4 |
| 20260831051137 | 64 | 352 | 3.0 | 4.0 | 0.00 | 0.00 | 0.00 | 88 | 1020.5 |
| 20260831050139 | 64 | 341 | 3.0 | 4.0 | 0.00 | 0.00 | 0.00 | 88 | 1020.4 |
| 20260831045137 | 64 | 343 | 1.0 | 4.0 | 0.00 | 0.00 | 0.00 | 87 | 1020.4 |
| 20260831044137 | 64 | 340 | 3.0 | 4.0 | 0.00 | 0.00 | 0.00 | 87 | 1020.4 |
| 20260831043137 | 64 | 339 | 2.0 | 4.0 | 0.00 | 0.00 | 0.00 | 87 | 1020.4 |
| 20260831042138 | 64 | 346 | 2.0 | 4.0 | 0.00 | 0.00 | 0.00 | 86 | 1020.5 |
| 20260831040136 | 65 | 311 | 3.0 | 7.0 | 0.00 | 0.00 | 0.00 | 86 | 1020.5 |
| 20260831035130 | 65 | 344 | 3.0 | 6.0 | 0.00 | 0.00 | 0.00 | 86 | 1020.5 |
| 20260831034130 | 64 | 335 | 3.0 | 4.0 | 0.00 | 0.00 | 0.00 | 86 | 1020.6 |
| 20260831033606 | 65 | 340 | 2.0 | 4.0 | 0.00 | 0.00 | 0.00 | 86 | 1020.6 |
| 20260831032131 | 65 | 352 | 3.0 | 6.0 | 0.00 | 0.00 | 0.00 | 86 | 1020.6 |
| 20260831031130 | 65 | 354 | 2.0 | 6.0 | 0.00 | 0.00 | 0.00 | 86 | 1020.5 |
| 20260831030615 | 65 | 341 | 3.0 | 4.0 | 0.00 | 0.00 | 0.00 | 85 | 1020.9 |
| 20260831025129 | 65 | 342 | 2.0 | 4.0 | 0.00 | 0.00 | 0.00 | 85 | 1020.8 |
| 20260831024129 | 64 | 2 | 2.0 | 3.0 | 0.00 | 0.00 | 0.00 | 86 | 1020.7 |
| 20260831023129 | 66 | 340 | 2.0 | 4.0 | 0.00 | 0.00 | 0.00 | 84 | 1020.9 |
| 20260831022613 | 66 | 2 | 3.0 | 7.0 | 0.00 | 0.00 | 0.00 | 84 | 1021.1 |
| 20260831021129 | 65 | 339 | 2.0 | 4.0 | 0.00 | 0.00 | 0.00 | 86 | 1021.2 |
| 20260831020128 | 65 | 351 | 2.0 | 4.0 | 0.00 | 0.00 | 0.00 | 86 | 1021.6 |
| 20260831015128 | 65 | 339 | 3.0 | 4.0 | 0.00 | 0.00 | 0.00 | 86 | 1021.7 |
| 20260831014615 | 64 | 345 | 3.0 | 4.0 | 0.00 | 0.00 | 0.00 | 87 | 1021.6 |
| 20260831013122 | 65 | 353 | 3.0 | 4.0 | 0.00 | 0.00 | 0.00 | 86 | 1021.5 |
| 20260831012123 | 65 | 355 | 2.0 | 4.0 | 0.00 | 0.00 | 0.00 | 86 | 1021.5 |
| 20260831011125 | 65 | 338 | 3.0 | 6.0 | 0.00 | 0.00 | 0.00 | 86 | 1021.8 |
| 20260831010121 | 65 | 336 | 4.0 | 6.0 | 0.00 | 0.00 | 0.00 | 86 | 1021.9 |
| 20260831005122 | 65 | 343 | 4.0 | 6.0 | 0.00 | 0.00 | 0.00 | 86 | 1022.0 |
| 20260831004122 | 65 | 348 | 2.0 | 4.0 | 0.00 | 0.00 | 0.00 | 85 | 1021.9 |
| 20260831003122 | 65 | 342 | 2.0 | 4.0 | 0.00 | 0.00 | 0.00 | 85 | 1021.9 |
| 20260831002122 | 65 | 340 | 3.0 | 6.0 | 0.00 | 0.00 | 0.00 | 84 | 1021.9 |
| 20260831001124 | 65 | 349 | 2.0 | 4.0 | 0.00 | 0.00 | 0.00 | 84 | 1022.0 |
| 20260831000121 | 65 | 336 | 3.0 | 4.0 | 0.00 | 0.00 | 0.00 | 86 | 1022.0 |
| 20260830235121 | 65 | 341 | 2.0 | 4.0 | 0.00 | 0.00 | 0.00 | 85 | 1022.1 |
| 20260830234123 | 65 | 332 | 0.0 | 4.0 | 0.00 | 0.00 | 0.00 | 84 | 1021.8 |
| 20260830234036 | 65 | 332 | 4.0 | 6.0 | 0.00 | 0.00 | 0.00 | 86 | 1021.7 |
| 20260830232114 | 65 | 343 | 3.0 | 6.0 | 0.00 | 0.00 | 0.00 | 85 | 1022.0 |
| 20260830231114 | 65 | 341 | 4.0 | 4.0 | 0.00 | 0.00 | 0.00 | 85 | 1021.7 |
| 20260830230113 | 65 | 352 | 4.0 | 6.0 | 0.00 | 0.00 | 0.00 | 85 | 1021.7 |
| 20260830230036 | 65 | 342 | 2.0 | 4.0 | 0.00 | 0.00 | 0.00 | 86 | 1021.7 |
| 20260830224114 | 65 | 333 | 2.0 | 4.0 | 0.00 | 0.00 | 0.00 | 86 | 1022.0 |
| 20260830223112 | 65 | 359 | 2.0 | 3.0 | 0.00 | 0.00 | 0.00 | 86 | 1022.0 |
| 20260830222114 | 66 | 345 | 1.0 | 6.0 | 0.00 | 0.00 | 0.00 | 86 | 1021.8 |
| 20260830221547 | 66 | 346 | 2.0 | 3.0 | 0.00 | 0.00 | 0.00 | 87 | 1022.1 |
| 20260830220112 | 66 | 338 | 2.0 | 3.0 | 0.00 | 0.00 | 0.00 | 86 | 1021.8 |
| 20260830215112 | 66 | 341 | 2.0 | 6.0 | 0.00 | 0.00 | 0.00 | 86 | 1021.6 |
| 20260830214112 | 66 | 16 | 3.0 | 6.0 | 0.00 | 0.00 | 0.00 | 86 | 1021.9 |
| 20260830213600 | 65 | 339 | 3.0 | 4.0 | 0.00 | 0.00 | 0.00 | 86 | 1021.8 |
| 20260830212112 | 65 | 343 | 2.0 | 3.0 | 0.00 | 0.00 | 0.00 | 86 | 1021.7 |
| 20260830211112 | 66 | 6 | 1.0 | 7.0 | 0.00 | 0.00 | 0.00 | 86 | 1021.6 |
| 20260830210053 | 66 | 337 | 3.0 | 3.0 | 0.00 | 0.00 | 0.00 | 87 | 1021.3 |
| 20260830205532 | 66 | 335 | 2.0 | 4.0 | 0.00 | 0.00 | 0.00 | 87 | 1021.5 |
| 20260830204054 | 66 | 347 | 3.0 | 4.0 | 0.00 | 0.00 | 0.00 | 87 | 1021.3 |
| 20260830203054 | 67 | 348 | 2.0 | 2.0 | 0.00 | 0.00 | 0.00 | 86 | 1021.2 |
| 20260830202053 | 67 | 330 | 1.0 | 2.0 | 0.00 | 0.00 | 0.00 | 86 | 1021.0 |
| 20260830201531 | 67 | 148 | 0.0 | 1.0 | 0.00 | 0.00 | 0.00 | 84 | 1020.9 |
| 20260830200054 | 68 | 132 | 0.0 | 2.0 | 0.00 | 0.00 | 0.00 | 84 | 1020.9 |
| 20260830195108 | 68 | 129 | 2.0 | 2.0 | 0.00 | 0.00 | 0.00 | 84 | 1020.7 |
| 20260830194053 | 68 | 142 | 2.0 | 3.0 | 0.00 | 0.00 | 0.00 | 84 | 1020.7 |
| 20260830193531 | 68 | 137 | 3.0 | 3.0 | 0.00 | 0.00 | 0.00 | 83 | 1021.0 |
| 20260830192053 | 69 | 106 | 2.0 | 3.0 | 0.00 | 0.00 | 0.00 | 83 | 1020.7 |
| 20260830191053 | 69 | 118 | 1.0 | 4.0 | 0.00 | 0.00 | 0.00 | 82 | 1020.8 |
| 20260830190530 | 69 | 132 | 2.0 | 3.0 | 0.00 | 0.00 | 0.00 | 82 | 1020.8 |
| 20260830185053 | 69 | 153 | 2.0 | 4.0 | 0.00 | 0.00 | 0.00 | 81 | 1020.8 |
| 20260830184053 | 69 | 139 | 1.0 | 4.0 | 0.00 | 0.00 | 0.00 | 81 | 1021.0 |
| 20260830183047 | 70 | 130 | 1.0 | 4.0 | 0.00 | 0.00 | 0.00 | 80 | 1020.9 |
| 20260830182046 | 70 | 145 | 3.0 | 4.0 | 0.00 | 0.00 | 0.00 | 80 | 1020.6 |
| 20260830181046 | 70 | 156 | 2.0 | 6.0 | 0.00 | 0.00 | 0.00 | 80 | 1020.6 |
| 20260830180048 | 70 | 104 | 5.0 | 7.0 | 0.00 | 0.00 | 0.00 | 79 | 1020.7 |
| 20260830175046 | 70 | 147 | 1.0 | 6.0 | 0.00 | 0.00 | 0.00 | 79 | 1020.8 |